Time,TemperatureF,DewpointF,PressureIn,WindDirection,WindDirectionDegrees,WindSpeedMPH,WindSpeedGustMPH,Humidity,HourlyPrecipIn,Conditions,Clouds,dailyrainin,SoftwareType,DateUTC
2013-03-24 00:02:00,32.0,28.0,-100.00,North,-999,-999.0,-999.0,84,-99.99,,,-99.99,,2013-03-24 07:02:00,
2013-03-24 00:11:00,31.0,27.0,-100.00,North,-999,-999.0,-999.0,85,-99.99,,,-99.99,,2013-03-24 07:11:00,
2013-03-24 00:22:00,31.0,27.0,-100.00,North,-999,-999.0,-999.0,85,-99.99,,,-99.99,,2013-03-24 07:22:00,
2013-03-24 00:32:00,31.0,27.0,-100.00,North,-999,-999.0,-999.0,85,-99.99,,,-99.99,,2013-03-24 07:32:00,
2013-03-24 00:42:00,30.0,27.0,-100.00,North,-999,-999.0,-999.0,87,-99.99,,,-99.99,,2013-03-24 07:42:00,
2013-03-24 00:53:00,31.0,-99.9,-100.00,North,-999,-999.0,-999.0,-999,-99.99,,,-99.99,,2013-03-24 07:53:00,
2013-03-24 01:03:00,31.0,-99.9,-100.00,North,-999,-999.0,-999.0,-999,-99.99,,,-99.99,,2013-03-24 08:03:00,
2013-03-24 01:12:00,29.0,-99.9,-100.00,North,-999,-999.0,-999.0,-999,-99.99,,,-99.99,,2013-03-24 08:12:00,
2013-03-24 01:22:00,29.0,27.0,-100.00,North,-999,-999.0,-999.0,92,-99.99,,,-99.99,,2013-03-24 08:22:00,
2013-03-24 01:32:00,29.0,27.0,-100.00,North,-999,-999.0,-999.0,92,-99.99,,,-99.99,,2013-03-24 08:32:00,
2013-03-24 01:41:00,29.0,27.0,-100.00,North,-999,-999.0,-999.0,92,-99.99,,,-99.99,,2013-03-24 08:41:00,
2013-03-24 01:53:00,30.0,-99.9,-100.00,North,-999,-999.0,-999.0,-999,-99.99,,,-99.99,,2013-03-24 08:53:00,
2013-03-24 02:02:00,29.0,26.0,-100.00,South,190,0.0,-999.0,88,-99.99,,,-99.99,,2013-03-24 09:02:00,
2013-03-24 02:12:00,29.0,26.0,-100.00,South,190,0.0,-999.0,88,-99.99,,,-99.99,,2013-03-24 09:12:00,
2013-03-24 02:22:00,29.0,-99.9,-100.00,North,-999,-999.0,-999.0,-999,-99.99,,,-99.99,,2013-03-24 09:22:00,
2013-03-24 02:52:00,28.0,27.0,-100.00,North,-999,-999.0,-999.0,94,-99.99,,,-99.99,,2013-03-24 09:52:00,
2013-03-24 03:02:00,28.0,27.0,-100.00,North,-999,-999.0,-999.0,94,-99.99,,,-99.99,,2013-03-24 10:02:00,
2013-03-24 03:13:00,-999.0,-99.9,-100.00,South,190,0.0,-999.0,-999,-99.99,,,-99.99,,2013-03-24 10:13:00,
2013-03-24 03:23:00,29.0,-99.9,-100.00,North,-999,-999.0,-999.0,-999,-99.99,,,-99.99,,2013-03-24 10:23:00,
2013-03-24 03:32:00,28.0,28.0,-100.00,North,-999,-999.0,-999.0,99,-99.99,,,-99.99,,2013-03-24 10:32:00,
2013-03-24 03:42:00,28.0,28.0,-100.00,North,-999,-999.0,-999.0,99,-99.99,,,-99.99,,2013-03-24 10:42:00,
2013-03-24 03:52:00,27.0,27.0,-100.00,North,-999,-999.0,-999.0,98,-99.99,,,-99.99,,2013-03-24 10:52:00,
2013-03-24 04:12:00,27.0,27.0,-100.00,North,-999,-999.0,-999.0,99,-99.99,,,-99.99,,2013-03-24 11:12:00,
2013-03-24 04:22:00,27.0,27.0,-100.00,North,-999,-999.0,-999.0,99,-99.99,,,-99.99,,2013-03-24 11:22:00,
2013-03-24 04:32:00,27.0,27.0,-100.00,North,-999,-999.0,-999.0,99,-99.99,,,-99.99,,2013-03-24 11:32:00,
2013-03-24 05:42:00,31.0,-99.9,-100.00,North,-999,-999.0,-999.0,-999,-99.99,,,-99.99,,2013-03-24 12:42:00,
2013-03-24 05:53:00,31.0,-99.9,-100.00,North,-999,-999.0,-999.0,-999,-99.99,,,-99.99,,2013-03-24 12:53:00,
2013-03-24 06:03:00,26.0,-99.9,-100.00,North,-999,-999.0,-999.0,-999,-99.99,,,-99.99,,2013-03-24 13:03:00,
2013-03-24 06:12:00,27.0,27.0,-100.00,North,-999,-999.0,-999.0,99,-99.99,,,-99.99,,2013-03-24 13:12:00,
2013-03-24 06:22:00,27.0,27.0,-100.00,North,-999,-999.0,-999.0,99,-99.99,,,-99.99,,2013-03-24 13:22:00,
2013-03-24 06:53:00,-999.0,-99.9,-100.00,South,190,0.0,-999.0,-999,-99.99,,,-99.99,,2013-03-24 13:53:00,
2013-03-24 07:02:00,27.0,27.0,-100.00,North,-999,-999.0,-999.0,99,-99.99,,,-99.99,,2013-03-24 14:02:00,
2013-03-24 08:12:00,26.0,26.0,-100.00,North,-999,-999.0,-999.0,99,-99.99,,,-99.99,,2013-03-24 15:12:00,
2013-03-24 08:23:00,27.0,-99.9,-100.00,North,-999,-999.0,-999.0,-999,-99.99,,,-99.99,,2013-03-24 15:23:00,
2013-03-24 08:33:00,27.0,-99.9,-100.00,North,-999,-999.0,-999.0,-999,-99.99,,,-99.99,,2013-03-24 15:33:00,
2013-03-24 09:12:00,31.0,31.0,-100.00,North,-999,-999.0,-999.0,99,-99.99,,,-99.99,,2013-03-24 16:12:00,
2013-03-24 09:23:00,32.0,-99.9,-100.00,North,-999,-999.0,-999.0,-999,-99.99,,,-99.99,,2013-03-24 16:23:00,
2013-03-24 09:33:00,32.0,-99.9,-100.00,North,-999,-999.0,-999.0,-999,-99.99,,,-99.99,,2013-03-24 16:33:00,
2013-03-24 09:43:00,32.0,-99.9,-100.00,North,-999,-999.0,-999.0,-999,-99.99,,,-99.99,,2013-03-24 16:43:00,
2013-03-24 09:52:00,-27.0,-30.0,-100.00,North,-999,-999.0,-999.0,84,-99.99,,,-99.99,,2013-03-24 16:52:00,
2013-03-24 10:03:00,39.0,-99.9,-100.00,North,-999,-999.0,-999.0,-999,-99.99,,,-99.99,,2013-03-24 17:03:00,
2013-03-24 10:13:00,39.0,-99.9,-100.00,North,-999,-999.0,-999.0,-999,-99.99,,,-99.99,,2013-03-24 17:13:00,
2013-03-24 10:23:00,39.0,-99.9,-100.00,North,-999,-999.0,-999.0,-999,-99.99,,,-99.99,,2013-03-24 17:23:00,
2013-03-24 10:53:00,44.0,-99.9,-100.00,North,-999,-999.0,-999.0,-999,-99.99,,,-99.99,,2013-03-24 17:53:00,
2013-03-24 11:03:00,43.0,-99.9,-100.00,North,-999,-999.0,-999.0,-999,-99.99,,,-99.99,,2013-03-24 18:03:00,
2013-03-24 11:13:00,43.0,-99.9,-100.00,North,-999,-999.0,-999.0,-999,-99.99,,,-99.99,,2013-03-24 18:13:00,
2013-03-24 11:22:00,43.0,-99.9,-100.00,North,-999,-999.0,-999.0,-999,-99.99,,,-99.99,,2013-03-24 18:22:00,
2013-03-24 11:33:00,43.0,-99.9,-100.00,North,-999,-999.0,-999.0,-999,-99.99,,,-99.99,,2013-03-24 18:33:00,
2013-03-24 12:30:00,50.0,-99.9,-100.00,North,-999,-999.0,-999.0,-999,-99.99,,,-99.99,,2013-03-24 19:30:00,
2013-03-24 12:33:00,61.0,-99.9,-100.00,North,-999,-999.0,-999.0,-999,-99.99,,,-99.99,,2013-03-24 19:33:00,
2013-03-24 13:03:00,50.0,-99.9,-100.00,North,-999,-999.0,-999.0,-999,-99.99,,,-99.99,,2013-03-24 20:03:00,
2013-03-24 13:23:00,50.0,-99.9,-100.00,North,-999,-999.0,-999.0,-999,-99.99,,,-99.99,,2013-03-24 20:23:00,